Weather History for KCGI - August, 2013

Change the Weather History Date:

Friday, August 30, 2013

  Actual Average Record
Temperature  
Mean Temperature 81 °F 75 °F  
Max Temperature 95 °F 87 °F 97 °F (2000)
Min Temperature 67 °F 63 °F 48 °F (1986)
Degree Days  
Heating Degree Days 0 0  
Month to date heating degree days 1 0  
Since 1 June heating degree days 1 4  
Since 1 July heating degree days 1 0  
Cooling Degree Days 16 10  
Month to date cooling degree days 317 364  
Year to date cooling degree days 1161 1250  
Since 1 June cooling degree days 990 1098  
Growing Degree Days 30 (Base 50)    
Moisture  
Dew Point 71 °F    
Average Humidity 73    
Maximum Humidity 100    
Minimum Humidity 46    
Precipitation  
Precipitation 0.00 in 0.10 in 3.05 in (2003)
Month to date precipitation 3.53 2.92  
Year to date precipitation 28.23 30.95  
Sea Level Pressure  
Sea Level Pressure 29.94 in    
Wind  
Wind Speed 2 mph (WSW)    
Max Wind Speed 8 mph    
Max Gust Speed 12 mph    
Visibility 6 miles    
Events Fog , Thunderstorm    
T = Trace of Precipitation, MM = Missing Value Source: NWS Daily Summary

Daily Weather History Graph

Daily Weather History Graph

Search for Another Location

Airport or City:

Trip Planner

Search our weather history database for the weather conditions in past years. The results will help you decide how hot, cold, wet, or windy it might be!

Date:

Astronomy

Aug. 30, 2013 Rise Set
Actual Time 6:27 AM CDT 7:29 PM CDT
Civil Twilight 6:00 AM CDT 7:56 PM CDT
Nautical Twilight 5:28 AM CDT 8:27 PM CDT
Astronomical Twilight 4:55 AM CDT 9:00 PM CDT
Moon 1:10 AM CDT (8/30) 3:41 PM CDT (8/30)
Length of Visible Light 13h 55m
Length of Day
13h 02m
Waning Crescent, 29% of the Moon is Illuminated
Aug 30
Waning Crescent
Sep 5
New
Sep 12
First Quarter
Sep 19
Full
Sep 26
Last Quarter

Hourly Weather History & Observations

Time (CDT) Temp. Heat Index Dew Point Humidity Pressure Visibility Wind Dir Wind Speed Gust Speed Precip Events Conditions
12:53 AM 72.0 °F - 70.0 °F 93% 29.96 in 9.0 mi Calm Calm - N/A   Clear
1:53 AM 72.0 °F - 70.0 °F 93% 29.96 in 9.0 mi Calm Calm - N/A   Clear
2:53 AM 70.0 °F - 69.1 °F 97% 29.96 in 7.0 mi Calm Calm - N/A   Clear
3:53 AM 69.1 °F - 68.0 °F 96% 29.96 in 5.0 mi Calm Calm - N/A   Clear
4:01 AM 69.8 °F - 68.0 °F 94% 29.97 in 1.5 mi Calm Calm - N/A   Clear
4:16 AM 69.8 °F - 69.8 °F 100% 29.97 in 0.5 mi West 3.5 mph - N/A Fog Fog
4:22 AM 69.8 °F - 69.8 °F 100% 29.97 in 2.5 mi West 3.5 mph - N/A   Clear
4:29 AM 69.8 °F - 69.8 °F 100% 29.97 in 4.0 mi West 3.5 mph - N/A   Clear
4:53 AM 69.1 °F - 68.0 °F 96% 29.96 in 2.0 mi Calm Calm - N/A   Clear
5:07 AM 69.8 °F - 68.0 °F 94% 29.97 in 4.0 mi Calm Calm - N/A   Clear
5:23 AM 69.8 °F - 68.0 °F 94% 29.97 in 1.8 mi Calm Calm - N/A   Clear
5:32 AM 69.8 °F - 68.0 °F 94% 29.97 in 0.5 mi Calm Calm - N/A Fog Fog
5:51 AM 69.8 °F - 68.0 °F 94% 29.97 in 0.2 mi Calm Calm - N/A Fog Fog
5:53 AM 68.0 °F - 66.9 °F 96% 29.96 in 0.2 mi Calm Calm - N/A Fog Fog
6:12 AM 68.0 °F - 66.2 °F 94% 29.98 in 1.0 mi Calm Calm - N/A   Mist
6:19 AM 66.2 °F - 66.2 °F 100% 29.98 in 0.2 mi Calm Calm - N/A Fog Fog
6:49 AM 68.0 °F - 66.2 °F 94% 29.99 in 0.8 mi Calm Calm - N/A   Mist
6:53 AM 69.1 °F - 68.0 °F 96% 29.98 in 0.5 mi Calm Calm - N/A Fog Fog
7:13 AM 69.8 °F - 69.8 °F 100% 29.99 in 0.2 mi Calm Calm - N/A Fog Fog
7:37 AM 71.6 °F - 71.6 °F 100% 30.00 in 1.0 mi Calm Calm - N/A   Clear
7:42 AM 71.6 °F - 71.6 °F 100% 30.00 in 3.0 mi Calm Calm - N/A   Clear
7:53 AM 73.0 °F - 71.1 °F 93% 29.99 in 5.0 mi Calm Calm - N/A   Clear
8:53 AM 79.0 °F - 73.0 °F 82% 29.98 in 10.0 mi Calm Calm - N/A   Clear
9:53 AM 82.9 °F 89.4 °F 73.9 °F 74% 29.98 in 10.0 mi West 4.6 mph - N/A   Clear
10:53 AM 89.1 °F 100.2 °F 75.9 °F 65% 29.97 in 10.0 mi Variable 3.5 mph - N/A   Clear
11:53 AM 91.0 °F 98.2 °F 72.0 °F 53% 29.96 in 10.0 mi Variable 3.5 mph - N/A   Clear
12:53 PM 93.0 °F 100.7 °F 72.0 °F 50% 29.94 in 10.0 mi Calm Calm - N/A   Clear
1:53 PM 93.0 °F 100.7 °F 72.0 °F 50% 29.93 in 10.0 mi West 3.5 mph - N/A   Clear
2:53 PM 93.9 °F 102.1 °F 72.0 °F 49% 29.90 in 10.0 mi SSW 6.9 mph - N/A   Clear
3:53 PM 93.9 °F 100.3 °F 70.0 °F 46% 29.89 in 10.0 mi Calm Calm - N/A   Clear
4:53 PM 91.0 °F 101.6 °F 75.0 °F 59% 29.88 in 10.0 mi Calm Calm - N/A   Mostly Cloudy
5:00 PM 89.6 °F 99.8 °F 75.2 °F 62% 29.89 in 10.0 mi WSW 3.5 mph - N/A Thunderstorm Mostly Cloudy
5:11 PM 89.6 °F 99.8 °F 75.2 °F 62% 29.89 in 10.0 mi WSW 3.5 mph - N/A   Mostly Cloudy
5:53 PM 86.0 °F 95.1 °F 75.0 °F 70% 29.88 in 10.0 mi SW 6.9 mph - N/A   Partly Cloudy
6:53 PM 84.0 °F 91.2 °F 73.9 °F 72% 29.88 in 10.0 mi West 8.1 mph - N/A   Clear
7:53 PM 81.0 °F 86.7 °F 75.0 °F 82% 29.87 in 10.0 mi Calm Calm - N/A   Clear
8:53 PM 78.1 °F - 73.0 °F 84% 29.88 in 10.0 mi Calm Calm - N/A   Clear
9:53 PM 75.9 °F - 72.0 °F 87% 29.87 in 10.0 mi Calm Calm - N/A   Clear
10:53 PM 75.9 °F - 72.0 °F 87% 29.87 in 10.0 mi Calm Calm - N/A   Scattered Clouds
11:53 PM 77.0 °F - 73.0 °F 88% 29.87 in 10.0 mi Calm Calm - N/A   Mostly Cloudy